Regional Weather Roundup
Issued by NWS Jackson, KY

Home | Current Version | Previous Version | Text Only | Print | Product List | Glossary On
Versions: 1 2 3 4 5 6 7 8 9 10 11 12 13 14 15 16 17 18 19 20 21 22 23 24 25 26 27 28 29 30 31 32 33 34 35 36 37 38 39 40 41 42 43 44 45 46 47 48 49 50
000
ASUS43 KJKL 220419
RWRJKL

EAST KENTUCKY HOURLY WEATHER ROUNDUP
NATIONAL WEATHER SERVICE JACKSON KY
1100 PM EST SUN DEC 21 2014

NOTE: "FAIR" INDICATES FEW OR NO CLOUDS BELOW 12,000 FEET WITH
NO SIGNIFICANT WEATHER AND/OR OBSTRUCTIONS TO VISIBILITY.

* THESE REPORTS ARE NOT UNDER NWS QUALITY CONTROL AND MAY NOT
  REPORT WEATHER SUCH AS PRECIPITATION AND FOG.

KYZ079-080-083-085-087-088-110-112-115-119-120-220500
...EASTERN KENTUCKY...

CITY           SKY/WX    TMP DP  RH WIND       PRES   REMARKS
JACKSON        CLOUDY    37  26  64 VRB3      30.11R
LONDON         CLOUDY    42  28  57 E5        30.09S
SOMERSET*      CLOUDY    39  28  65 CALM      30.11R
MONTICELLO*    CLOUDY    39  32  76 CALM      30.11S
MIDDLESBORO*   CLOUDY    39  35  85 CALM      30.12S
HARLAN APT*    CLOUDY    36  32  87 E9        30.12R WCI  29
HAZARD APT*    CLOUDY    36  28  75 CALM      30.12R
BLACK MTN*       N/A     34  32  93 SE1         N/A
PIKEVILLE APT* CLEAR     36  27  69 CALM      30.11S
BIG SANDY*     PTCLDY    33  27  80 CALM      30.12R
MOREHEAD APT*  PTCLDY    34  27  75 VRB3      30.14F
ASHLAND*       CLEAR     28  21  74 CALM      30.14S
$$

KYZ035-036-041-042-044-050-067-078-099-220500
...CENTRAL KENTUCKY...

CITY           SKY/WX    TMP DP  RH WIND       PRES   REMARKS
MT STERLING*   PTCLDY    32  28  86 E8        30.12F WCI  25
FLEMING/MASON* CLEAR     27  25  93 E7        30.13F WCI  19
DANVILLE*      PTCLDY    30  28  93 CALM      30.10S
RICHMOND*      MOCLDY    32  27  80 E7        30.10S WCI  26
LEXINGTON      CLEAR     33  27  78 E9        30.09F WCI  25
FRANKFORT      CLEAR     30  25  81 NE5       30.09F WCI  25
$$

KYZ091>093-OHZ055-061-077-WVZ005-015-034-035-042-220500
...SOUTHERN OHIO/WEST VIRGINIA...

CITY           SKY/WX    TMP DP  RH WIND       PRES   REMARKS
COVINGTON      PTCLDY    29  22  75 E6        30.11F WCI  23
COLUMBUS       MOCLDY    27  21  78 E5        30.16F WCI  22
DAYTON         PTCLDY    27  24  89 E6        30.14F WCI  20
WILMINGTON     CLEAR     26  23  88 E7        30.13S WCI  18
HUNTINGTON     PTCLDY    32  26  78 CALM      30.13F
CHARLESTON     MOCLDY    30  26  85 CALM      30.13F
PINEVILLE*     CLEAR     30  30 100 MISG      30.17R
BECKLEY        CLEAR     36  30  79 SE14      30.11S WCI  27
BLUEFIELD      MOCLDY    39  31  72 VRB3      30.12S
$$

VAZ002-007-008-TNZ017-027-036-066-071-220500
...SOUTHWEST VIRGINIA/EAST TENNESSEE...

CITY           SKY/WX    TMP DP  RH WIND       PRES   REMARKS
WISE*          CLEAR     37  32  81 S5        30.09S WCI  34
JONESVILLE*    PTCLDY    28  28 100 CALM      30.14S
ABINGDON*      CLOUDY    40  34  79 E6        30.12R
BRISTOL        MOCLDY    38  33  82 NE3       30.12R
KNOXVILLE      CLOUDY    41  36  82 CALM      30.09S
OAK RIDGE      CLOUDY    45  37  73 CALM      30.11S
CROSSVILLE     CLOUDY    45  36  70 CALM      30.08S
NASHVILLE      PTCLDY    43  37  79 CALM      30.04F
$$

...KEY TO REMARKS...
VSB - VISIBILITY IN MILES
WCI - WIND CHILL INDEX
HX  - HEAT INDEX

$$



USA.gov is the U.S. government's official web portal to all federal, state and local government web resources and services.